Wind_Speed
35 36 37 38 38 37 35 32 31 32 33 33 33 32 32 31 30 30 29 29 30 29 29 29 30 30 31 32 33 33 32 32 31 30 29 28 27 26 26 26 25 24 23 22 21 19 18 16 16 15 14 14 13 12 10 9 7 7 7 7 8 8 7 7 7 7 7 7 7
35 36 37 37 37 36 34 31 31 32 32 33 33 33 33 32 31 30 29 29 29 30 29 29 29 30 31 32 32 32 32 32 31 31 30 29 28 28 28 27 26 24 23 22 21 20 19 17 17 16 15 14 13 12 10 9 8 8 8 8 8 8 8 7 7 7 8 8 8
36 37 37 36 36 35 33 31 31 32 32 32 31 31 31 30 30 29 29 29 29 30 29 28 28 30 31 32 32 31 31 32 32 32 31 30 30 30 29 28 26 24 23 21 21 20 19 18 17 16 15 14 12 11 10 10 9 9 9 9 9 9 9 8 8 8 8 8 8
37 37 37 37 37 37 36 34 34 34 34 31 29 28 28 27 27 27 28 28 28 28 28 29 29 30 31 32 32 32 31 31 32 32 32 31 31 31 30 28 26 24 23 21 21 20 20 19 17 15 13 12 11 11 11 10 10 10 10 10 10 10 9 8 8 8 8 9 9
37 38 38 39 40 41 39 36 35 35 33 31 29 28 27 27 27 27 28 28 28 27 28 28 29 30 31 32 32 32 32 31 31 32 32 32 32 31 30 28 26 24 23 22 21 20 19 17 15 13 12 11 11 11 11 10 10 10 10 10 10 10 9 9 8 8 9 9 9
38 39 39 39 41 41 38 35 35 34 33 32 31 30 29 28 27 27 28 28 28 27 27 27 29 30 32 33 33 33 32 32 32 32 32 32 32 31 29 27 26 24 23 22 21 19 17 15 14 13 12 12 12 11 11 10 9 10 10 10 10 10 9 9 9 9 9 9 9
39 39 39 38 40 38 35 33 33 33 32 32 33 33 31 30 29 29 29 29 29 28 27 27 29 31 33 34 34 33 33 33 32 32 32 32 31 30 28 27 25 24 23 21 19 17 16 15 14 13 13 13 12 12 11 11 10 10 10 10 10 10 10 9 9 9 9 9 8
38 38 37 37 37 35 33 32 32 32 32 32 33 33 33 31 31 30 30 30 29 28 28 28 30 32 34 34 34 34 34 34 33 33 32 32 31 29 28 26 24 23 21 20 18 17 16 15 14 14 14 13 13 13 12 12 10 10 9 9 10 10 10 10 10 9 9 8 8
35 35 34 34 33 32 31 31 32 33 33 32 33 33 33 32 32 32 31 31 29 28 28 28 31 33 34 35 35 35 34 34 34 33 32 31 30 29 27 25 24 22 21 19 18 17 16 15 14 14 13 13 13 13 13 12 11 9 9 9 10 10 10 10 10 9 9 8 8
33 33 32 31 31 30 30 30 31 32 33 32 32 33 33 33 33 33 32 32 29 27 27 29 32 34 34 34 35 35 35 34 33 33 32 31 29 28 26 25 23 22 21 20 18 17 16 15 14 13 12 12 13 13 13 12 11 10 9 9 10 10 10 10 10 9 9 9 8
34 33 32 31 30 30 30 30 30 30 31 31 31 32 32 33 33 33 33 32 29 27 28 30 33 34 34 34 35 35 34 34 33 32 32 30 28 27 26 25 23 22 21 20 18 17 16 15 14 13 12 13 13 14 13 12 11 10 9 10 10 10 10 10 10 10 9 9 8
33 32 31 30 30 30 30 29 29 29 29 30 31 31 31 32 33 33 33 31 28 27 28 30 33 34 34 34 34 34 33 33 32 32 31 29 27 25 24 24 23 22 21 20 19 18 17 16 14 13 13 14 15 15 14 13 12 11 10 10 10 11 11 11 10 10 9 9 8
31 30 29 28 29 29 29 29 28 28 28 29 30 30 31 32 32 33 32 30 27 26 27 29 31 32 32 32 32 31 31 31 31 31 30 28 26 25 24 24 23 23 22 20 19 18 16 14 13 14 15 16 16 15 14 13 12 11 10 10 10 11 11 11 10 10 9 9 9
29 28 28 28 28 29 28 27 26 26 27 28 29 29 30 31 32 32 31 29 26 25 26 28 29 29 29 30 30 30 30 30 30 30 29 27 26 25 25 24 23 22 21 20 18 16 14 13 14 15 17 17 16 15 14 13 12 11 10 9 9 9 9 9 9 9 9 9 9
27 28 28 28 28 28 27 26 25 25 27 28 28 29 29 30 31 31 30 28 26 26 26 28 28 28 28 28 29 29 29 30 30 30 29 27 27 26 25 23 22 20 19 17 15 13 12 13 15 16 17 16 15 14 13 12 11 10 9 8 8 8 8 8 9 9 9 10 10
27 28 28 28 28 27 26 25 24 25 27 27 27 28 29 30 31 31 29 28 27 26 27 28 28 28 28 28 28 29 29 30 31 30 29 28 27 26 24 21 19 17 16 14 13 13 14 15 16 16 15 14 13 12 11 10 9 9 8 8 8 8 8 8 8 9 9 10 11
28 28 28 29 28 27 25 25 25 26 27 27 27 27 29 30 31 30 29 28 27 27 28 29 29 29 29 29 29 29 30 31 31 30 29 28 26 24 21 19 17 16 14 14 14 15 16 16 15 14 13 13 12 11 10 9 9 9 9 8 8 8 8 8 9 9 10 11 11
28 28 28 28 27 26 25 26 26 27 28 28 28 28 29 31 31 30 29 28 28 29 30 30 30 31 31 31 31 31 31 31 30 29 28 26 24 22 19 18 16 15 15 16 17 17 17 15 14 14 13 12 11 11 10 10 9 9 9 9 9 9 8 9 9 10 10 11 12
28 28 28 28 27 26 26 27 28 28 28 28 28 29 30 31 32 31 29 29 29 30 31 31 31 31 32 32 32 32 31 31 30 28 27 24 22 20 18 17 17 17 17 18 18 17 16 15 14 14 13 12 12 11 11 11 10 10 10 9 9 9 9 9 9 10 10 11 11
28 29 29 28 28 27 27 28 29 29 29 28 28 29 30 32 32 32 31 30 30 30 31 31 31 31 31 32 32 31 31 30 29 27 25 23 21 19 19 18 18 19 19 19 18 17 16 15 14 14 13 12 12 12 11 11 11 10 10 9 9 9 9 10 10 10 11 11 11
28 28 28 28 28 27 28 28 29 29 28 28 29 29 30 32 32 31 31 30 30 30 30 31 31 32 32 32 31 31 30 29 27 26 24 22 21 20 19 19 20 20 20 18 17 16 16 15 14 14 13 12 12 11 11 11 10 10 9 9 9 9 9 10 10 10 10 11 11
26 27 27 27 26 27 28 28 28 28 28 28 29 29 30 31 31 30 30 30 30 30 30 31 31 32 32 32 31 30 29 27 26 24 23 22 21 20 20 20 21 20 19 17 17 16 16 15 14 13 12 12 11 11 10 10 9 9 9 9 9 10 10 10 11 11 11 11 11
26 25 25 24 25 27 28 28 28 28 28 29 29 29 29 29 29 29 29 29 29 29 30 31 31 31 31 31 30 29 28 27 25 24 23 22 21 21 21 21 20 19 17 17 16 16 15 14 13 12 11 11 10 10 9 9 9 9 9 10 10 11 11 11 12 12 12 12 12
25 24 23 23 25 27 28 28 29 29 29 29 29 29 29 29 28 28 28 28 29 29 30 30 30 30 30 29 29 28 27 27 25 24 23 21 21 21 21 20 18 17 17 16 15 14 13 12 11 10 10 10 9 9 9 9 9 10 10 11 11 12 12 12 12 13 13 12 12
25 24 23 24 25 27 28 28 29 29 29 29 30 30 29 28 28 27 27 28 28 29 29 29 29 29 29 28 28 27 27 26 26 24 23 22 22 22 20 18 17 16 15 15 13 12 11 10 9 9 9 9 9 9 9 9 10 10 11 11 12 12 13 13 13 13 12 12 12
24 24 24 25 26 27 27 28 28 29 29 30 30 29 29 28 27 27 27 28 28 29 29 29 29 28 28 28 28 27 26 26 25 24 24 24 23 21 19 17 16 15 14 13 12 10 9 9 8 8 8 8 8 8 9 9 10 11 11 12 12 13 13 13 13 13 12 11 10
24 24 25 26 26 26 27 27 28 29 29 29 29 28 28 27 27 27 27 28 29 29 29 29 28 28 28 28 28 27 26 25 25 25 24 23 21 19 17 16 15 14 13 12 10 9 8 7 7 7 7 7 8 8 9 9 10 11 11 11 12 12 12 13 12 12 11 10 9
24 25 26 26 26 26 26 27 27 27 27 27 27 27 27 26 27 27 28 29 29 29 29 28 28 28 28 28 28 27 27 26 25 25 23 21 19 17 16 15 15 13 12 11 9 8 7 5 4 4 5 6 7 8 9 9 10 10 10 10 11 11 11 11 10 10 9 8 8
25 26 27 27 26 26 26 26 26 26 26 26 26 26 26 26 27 28 29 29 29 29 29 29 29 29 29 28 28 27 26 26 25 23 21 19 17 17 16 15 14 13 11 10 8 7 5 4 3 3 5 7 8 8 8 9 9 10 10 10 10 10 10 9 9 8 8 8 7
26 26 26 26 26 26 25 25 25 25 25 25 25 26 26 26 27 28 28 29 29 29 29 29 29 29 29 29 28 27 26 25 24 22 20 19 18 18 17 15 14 12 10 8 7 5 4 3 3 3 5 7 8 8 8 8 9 10 10 10 9 9 8 8 7 7 7 7 7
25 25 26 26 26 25 25 25 25 25 25 25 26 26 26 26 27 28 28 29 29 29 29 30 30 30 30 29 27 26 26 24 23 22 21 20 19 18 16 14 12 11 9 7 6 4 4 3 3 3 5 6 7 7 7 8 9 9 9 9 8 7 7 6 6 6 7 7 6
24 25 25 25 25 25 25 24 24 24 25 25 26 26 26 27 27 28 28 29 29 29 29 30 30 30 29 27 26 26 25 24 23 22 21 20 18 17 14 12 11 9 7 6 5 4 4 3 2 3 4 5 6 7 7 8 8 9 8 7 7 6 6 5 5 5 5 5 5
24 25 25 25 25 25 25 24 24 25 25 25 26 26 27 28 28 28 28 28 29 29 29 30 29 29 28 27 27 26 24 23 22 20 19 18 16 14 12 10 9 7 6 5 5 4 3 2 2 2 3 5 6 7 8 8 8 7 6 5 5 4 4 4 4 4 4 4 4
24 25 25 24 24 24 24 24 24 25 26 26 26 27 28 28 29 28 28 28 28 28 28 28 28 28 27 27 26 25 23 21 20 18 17 15 14 12 10 9 8 7 6 5 5 4 3 2 2 2 4 5 7 8 8 8 7 6 5 4 3 3 3 3 3 4 4 4 5
24 24 24 24 24 23 23 24 24 25 26 26 27 28 28 29 28 28 27 27 27 27 27 26 26 26 26 25 24 23 21 20 18 17 15 13 11 10 9 8 8 7 6 6 5 4 3 1 1 2 4 6 7 8 8 8 7 5 3 2 2 2 2 3 3 4 5 6 6
24 24 24 24 23 23 23 24 25 26 26 27 28 28 28 27 27 27 27 27 27 27 26 25 25 25 24 23 22 21 20 19 17 15 13 11 9 9 9 8 8 8 7 7 6 4 2 1 1 3 5 6 8 8 8 8 6 4 2 2 2 2 3 3 4 5 6 7 8
23 24 24 24 24 23 24 24 25 26 26 27 27 27 27 27 26 26 26 27 27 27 26 26 25 25 24 23 21 19 17 15 14 12 10 9 8 8 9 9 9 9 8 7 5 3 2 0 1 3 5 6 7 8 8 7 5 3 2 2 2 2 3 4 5 6 7 8 9
23 23 24 24 24 24 24 25 26 26 26 27 27 27 27 26 25 25 26 27 28 27 27 26 25 24 22 21 18 16 14 12 10 10 9 8 8 8 8 9 10 10 9 6 4 3 1 0 1 3 5 6 7 7 7 6 5 3 3 2 2 3 4 5 6 7 8 9 9
23 23 24 24 25 25 25 26 26 26 27 27 26 26 26 26 26 26 26 27 28 28 27 26 24 22 20 18 16 14 12 10 9 8 8 8 8 7 8 10 10 10 8 6 4 2 1 1 1 2 4 5 6 6 6 6 4 3 3 3 4 5 6 7 8 8 9 9 9
24 25 25 25 26 26 26 26 26 27 27 27 27 27 27 27 27 27 27 27 27 27 26 24 22 20 18 16 15 13 12 10 9 8 8 8 7 7 8 9 9 8 7 5 4 2 1 1 1 2 4 5 5 5 6 5 5 4 4 5 5 6 7 8 9 10 10 10 10
27 27 27 27 27 27 27 27 27 27 27 28 28 28 28 28 28 28 27 26 25 24 23 21 19 18 16 15 14 14 13 12 10 9 8 7 7 7 7 7 7 7 6 5 4 3 1 1 0 2 3 4 4 5 5 5 5 5 5 6 7 8 9 10 10 11 11 11 10
Wind_Direction
185 185 186 187 187 188 188 189 190 189 187 185 185 185 185 185 185 185 184 183 182 181 180 180 180 180 180 180 180 180 181 183 184 185 187 190 193 193 190 185 182 178 173 171 169 168 167 168 168 167 166 166 164 164 166 172 180 188 190 189 187 189 194 199 206 213 217 219 222
185 186 187 187 188 188 188 188 189 190 189 188 187 187 186 185 185 184 184 183 182 181 180 179 180 180 180 180 180 181 182 184 185 186 187 188 189 188 185 182 180 177 173 171 169 167 166 168 169 168 168 169 170 170 171 177 186 193 195 196 196 198 202 207 213 219 222 222 223
185 186 187 187 187 187 187 188 189 190 190 190 189 187 185 184 184 185 185 184 182 181 179 178 179 180 180 180 180 181 183 185 186 186 185 184 183 182 181 180 178 175 172 170 168 167 167 169 171 172 172 173 173 173 174 180 187 193 196 198 200 202 205 210 216 221 224 225 226
185 186 186 187 189 189 189 190 191 191 190 188 186 184 183 182 183 184 184 183 182 181 179 178 177 178 179 179 179 181 184 186 186 185 183 181 180 179 179 178 175 173 170 169 169 169 170 170 172 172 172 171 172 174 178 182 187 192 197 200 202 204 206 211 217 222 226 227 229
185 187 188 190 192 193 193 192 191 189 187 186 184 182 182 183 183 183 182 181 181 180 178 177 175 176 177 178 179 181 183 185 184 183 180 178 178 178 177 176 173 170 169 170 172 172 171 168 167 167 168 170 174 179 184 186 189 194 198 201 202 204 208 212 218 224 227 228 231
186 188 190 192 193 193 193 192 191 188 184 183 181 181 181 182 183 182 180 179 179 178 176 175 175 174 175 177 179 181 182 181 181 181 179 177 176 176 175 173 171 170 170 172 173 172 167 160 159 164 170 175 180 185 189 191 194 197 199 201 203 206 210 215 221 225 228 229 231
188 189 190 192 192 191 190 190 188 185 182 181 180 179 179 180 181 180 178 177 176 175 174 174 174 174 174 176 178 179 179 179 179 179 178 177 176 174 173 171 170 169 170 171 170 166 160 156 160 168 177 182 187 191 193 195 198 200 201 202 205 209 213 218 223 226 228 230 233
188 189 190 191 190 189 188 187 185 183 181 180 179 178 177 178 178 176 175 174 173 173 174 174 174 175 175 176 177 177 177 177 177 177 177 176 175 173 171 169 168 168 167 166 163 161 159 161 168 177 182 187 192 196 198 199 201 203 205 206 208 212 215 218 222 225 228 233 238
186 187 188 189 189 188 187 185 183 181 180 179 178 177 177 176 175 173 172 172 172 172 173 173 175 176 176 176 177 176 176 176 176 176 176 175 173 171 168 167 166 164 163 162 160 160 162 168 176 183 187 191 196 199 201 203 204 205 208 210 211 213 215 218 221 225 231 237 243
185 186 186 186 187 187 185 184 182 180 179 177 176 175 175 175 174 173 173 173 172 171 173 175 176 176 176 176 176 175 175 175 174 174 174 173 171 169 166 165 164 161 160 161 161 162 166 172 179 185 190 196 200 203 205 206 206 208 210 212 213 213 215 218 223 228 234 240 247
184 184 184 183 183 182 182 179 178 177 176 173 173 173 173 173 174 175 175 174 171 172 175 176 176 175 174 175 174 173 173 172 172 172 171 171 169 167 165 164 162 161 160 161 162 165 169 174 177 182 190 199 204 207 208 208 208 209 211 212 213 214 216 219 225 230 237 243 249
183 182 181 180 179 178 177 174 173 172 171 171 171 170 171 172 174 176 175 173 171 173 175 176 175 174 173 172 172 171 170 170 169 169 169 168 165 163 162 163 162 161 161 163 166 170 173 175 176 182 192 200 205 208 209 209 209 209 209 210 211 213 216 220 226 232 238 244 249
179 177 175 174 174 173 171 169 168 168 168 168 168 168 169 170 173 173 172 170 170 171 173 174 173 172 170 169 168 167 166 166 167 166 165 163 161 161 163 164 164 164 165 168 171 174 174 174 177 186 196 201 204 207 209 210 209 208 207 208 210 213 216 221 227 232 238 244 248
174 172 170 169 169 168 166 164 164 165 165 165 166 166 167 167 168 169 168 167 166 167 169 169 169 169 168 166 165 164 164 164 164 163 162 161 162 165 167 168 168 168 169 171 173 173 172 175 185 195 200 202 203 205 208 209 209 209 209 209 211 215 219 223 229 235 241 245 250
169 168 167 166 164 163 162 162 162 162 163 163 164 165 165 164 164 164 164 163 164 165 166 165 165 166 166 164 162 161 161 161 162 161 161 163 166 169 170 170 170 169 169 169 169 171 176 186 195 199 201 202 203 205 205 207 209 212 214 217 220 223 226 231 236 241 246 250 255
165 164 163 162 162 161 160 160 161 162 162 162 163 163 162 161 161 161 161 161 161 162 163 162 163 163 162 161 161 160 160 161 162 163 164 166 169 171 171 170 168 166 165 165 169 177 189 197 199 200 201 202 203 203 204 206 210 215 221 225 229 233 237 241 245 249 254 258 261
162 162 161 161 161 161 160 160 161 162 162 161 162 162 161 160 159 159 159 159 160 160 161 162 162 161 160 159 160 160 161 163 165 166 167 169 171 171 170 167 164 163 164 168 177 187 194 197 197 198 200 202 202 203 204 207 212 219 225 231 236 241 246 250 254 258 261 264 267
161 160 161 162 162 161 161 161 161 161 161 160 161 161 160 158 157 157 158 159 159 160 160 161 161 161 160 160 161 164 165 166 168 169 170 171 171 169 165 162 161 163 169 179 187 192 193 193 194 196 198 200 202 204 207 211 216 222 229 234 240 246 250 254 259 263 266 269 271
162 161 162 163 162 162 162 162 161 160 160 160 160 159 158 157 157 157 158 159 160 160 160 160 160 161 161 161 163 166 168 169 169 170 171 170 168 164 161 160 162 169 178 187 192 193 192 192 193 195 198 201 204 207 211 215 219 224 230 235 240 245 250 253 257 260 263 266 269
163 163 163 163 162 161 161 161 160 158 158 158 157 157 157 157 157 157 157 158 160 161 160 160 159 160 161 162 164 166 168 170 170 169 169 167 163 160 160 163 169 178 186 192 193 193 192 192 194 196 199 202 205 208 212 216 220 225 230 235 240 245 248 252 254 257 260 262 265
164 164 163 162 161 160 159 158 157 156 156 155 155 156 156 157 156 156 156 157 159 160 160 160 160 160 160 162 164 166 167 168 168 167 165 162 160 161 164 170 178 185 189 191 191 191 191 193 195 197 200 203 206 209 213 217 221 226 231 236 240 245 248 251 254 257 259 262 264
165 164 162 160 158 157 156 155 154 153 153 153 154 154 155 155 155 154 155 157 158 160 160 160 160 160 161 163 164 165 165 165 165 163 161 159 161 165 171 178 184 187 188 188 189 190 191 193 195 197 200 202 206 210 214 218 223 228 233 238 242 247 250 253 255 258 261 262 264
163 161 158 156 154 153 152 151 151 151 151 152 152 153 153 153 152 152 153 155 157 159 159 159 159 160 162 163 163 163 162 161 160 159 159 161 164 171 178 183 185 186 185 186 187 189 191 192 195 198 201 204 208 213 217 223 229 234 239 244 248 252 255 258 260 262 264 265 266
160 157 153 150 149 149 149 148 149 149 149 150 151 152 151 151 150 150 151 154 156 156 157 157 158 159 160 161 161 160 159 158 158 158 160 164 170 176 181 183 184 184 184 185 186 189 191 193 196 200 205 210 215 221 227 233 240 245 250 254 258 260 263 265 267 268 269 269 268
156 152 148 146 147 147 147 147 147 147 148 150 151 151 150 149 149 149 150 152 153 155 155 156 157 157 157 157 157 158 158 158 158 160 163 169 175 178 180 180 181 182 182 183 184 187 191 197 202 207 213 220 226 233 240 246 252 257 260 263 266 269 271 271 272 273 273 272 269
151 147 144 144 145 144 144 145 145 146 147 148 149 149 149 149 148 149 149 150 151 153 154 154 154 154 154 154 155 157 158 158 160 162 167 171 174 176 177 177 179 180 180 181 182 186 191 198 205 213 221 228 235 243 249 255 259 262 265 267 271 274 277 278 279 279 277 273 268
144 142 142 142 142 142 142 143 144 144 145 146 146 147 147 147 147 148 148 148 150 151 152 152 151 151 152 154 155 156 158 159 162 166 170 172 172 172 173 175 178 178 178 177 178 180 185 193 203 213 222 232 240 247 252 257 260 263 267 271 276 279 282 285 286 285 282 277 269
140 140 140 140 140 140 141 141 141 142 143 144 144 145 145 145 145 145 146 146 147 148 148 148 149 150 151 152 154 156 158 161 165 169 171 172 172 172 173 175 177 177 176 174 172 171 172 178 196 217 231 238 245 250 255 261 266 271 276 281 285 287 289 289 290 290 288 283 276
139 139 139 139 138 138 139 139 139 139 140 141 142 143 143 142 142 143 144 145 145 145 145 146 147 148 149 151 154 157 160 163 168 170 171 171 172 173 174 174 173 171 169 167 164 163 165 171 194 233 250 253 257 261 267 274 281 286 289 292 293 293 293 292 292 292 292 290 287
138 138 138 137 136 136 136 137 137 137 138 138 139 140 140 140 141 142 143 144 144 145 145 146 147 148 149 152 155 158 162 166 170 171 171 170 170 170 170 168 164 160 157 155 156 161 171 188 210 242 258 263 268 276 286 293 296 298 299 299 299 297 295 294 295 297 298 299 297
136 136 134 134 134 134 134 134 135 135 136 137 138 138 138 139 141 142 143 143 144 144 146 147 148 149 151 154 157 161 164 167 169 169 168 167 167 165 163 160 154 150 150 154 162 175 191 207 225 246 260 267 278 291 302 306 306 305 305 303 302 299 298 298 301 304 306 306 307
133 132 131 130 130 131 132 132 133 133 134 135 136 137 137 138 139 141 142 142 143 144 146 148 149 150 152 155 159 163 165 166 165 164 164 164 163 161 157 153 150 150 155 165 178 193 206 220 232 247 263 276 293 306 313 314 313 311 309 306 303 301 303 307 311 314 315 317 318
130 129 128 127 127 129 130 131 131 132 132 133 134 135 135 136 138 139 140 142 144 145 146 148 149 150 152 156 160 162 162 161 160 160 161 161 160 157 154 152 154 161 169 178 188 197 207 221 236 254 272 289 305 315 320 322 320 316 312 306 303 306 311 320 325 330 331 333 332
127 126 126 125 126 128 129 129 130 130 130 131 132 133 135 136 137 138 140 142 144 145 146 147 148 150 153 157 158 158 156 155 156 157 158 158 158 156 156 158 165 171 176 179 184 191 201 218 244 267 283 300 312 321 326 328 327 321 313 303 305 313 326 336 340 342 343 342 339
126 124 124 125 126 127 127 127 128 129 129 129 130 132 134 136 136 137 139 140 141 141 141 144 146 149 152 155 155 154 153 152 154 156 157 159 160 161 164 168 171 172 173 174 180 188 199 221 260 283 296 309 318 325 330 332 331 324 311 301 311 326 339 344 346 346 344 341 337
125 125 125 125 125 125 125 126 127 128 128 129 130 132 133 135 135 136 137 138 137 137 138 140 144 146 148 150 151 152 154 155 156 158 159 162 164 167 170 172 170 167 168 177 185 193 204 236 282 296 306 315 321 327 331 334 333 324 306 298 315 333 340 343 344 343 340 338 336
125 125 126 125 124 124 124 125 126 127 127 128 129 131 131 132 132 133 135 136 135 135 137 140 142 145 147 150 152 155 157 159 159 158 159 162 166 171 173 173 170 167 169 181 191 200 208 245 309 308 312 319 322 327 332 336 332 319 298 296 318 332 336 337 337 336 335 335 336
124 125 125 124 123 123 123 124 125 126 126 127 128 129 129 129 129 131 134 137 137 137 139 142 144 147 150 153 155 156 158 158 157 156 157 161 167 172 176 176 175 175 178 185 193 201 198 69 342 317 315 319 323 329 335 339 335 320 303 299 311 324 330 331 331 331 332 333 335
121 123 123 123 122 122 122 124 124 125 125 126 126 127 127 128 129 132 136 139 141 142 143 145 148 151 153 155 154 152 151 150 151 153 158 163 168 175 180 183 184 185 186 186 188 192 174 70 25 321 314 317 323 331 339 345 344 333 321 315 318 323 326 328 331 332 334 337 340
119 120 120 120 120 121 122 122 123 125 126 126 126 127 128 130 132 135 139 143 145 147 149 150 151 153 153 152 149 147 148 150 153 157 162 165 171 179 187 191 193 194 190 180 178 180 159 75 24 313 310 316 323 332 343 352 354 352 345 339 335 333 332 333 335 339 342 344 345
119 119 119 119 119 120 121 122 123 124 126 127 128 129 132 134 137 140 143 146 148 151 151 151 150 150 149 148 147 148 152 157 161 164 167 170 175 182 190 197 202 201 194 183 181 181 171 97 22 310 307 313 321 333 345 354 360 360 356 351 346 342 339 338 339 341 342 342 342
Height
735 737 739 741 742 744 746 748 750 751 752 752 753 755 756 758 760 761 763 764 765 766 768 769 770 771 772 774 776 777 779 781 783 784 786 787 789 791 793 794 795 795 794 795 797 798 800 801 802 804 805 806 807 808 809 810 811 812 812 812 812 812 812 813 814 814 815 816 817
734 736 737 740 741 743 745 747 749 750 751 751 752 752 754 756 757 759 761 762 764 765 767 768 769 771 772 774 776 778 779 781 783 784 786 787 788 790 792 793 794 794 794 795 796 797 798 800 802 803 804 805 806 807 808 809 810 811 812 812 812 812 812 813 813 814 815 816 816
732 735 737 739 740 742 744 746 747 748 750 751 751 752 753 755 758 760 761 762 763 764 766 767 769 770 772 773 776 778 780 781 783 784 786 786 787 789 791 792 793 793 793 794 795 796 797 799 800 802 803 804 805 806 807 808 810 811 811 811 812 812 812 813 813 814 815 815 816
731 733 735 737 738 740 741 742 744 746 747 750 752 753 755 757 759 761 762 762 764 765 766 767 768 769 772 773 775 777 780 782 783 785 785 786 787 788 790 791 792 792 793 794 795 796 796 797 799 801 802 803 804 806 807 808 809 810 811 811 811 812 812 812 813 814 814 815 816
730 731 733 734 735 737 738 740 742 743 746 749 752 754 756 758 759 760 761 762 764 765 766 767 768 769 771 773 775 777 780 782 784 785 785 786 787 788 789 790 791 792 792 793 794 795 796 797 798 800 802 803 805 806 807 808 808 810 810 811 811 811 812 812 813 813 814 815 815
728 730 731 732 733 735 737 739 740 742 744 747 749 752 754 756 758 759 760 761 763 764 766 767 768 769 771 773 775 777 779 782 783 785 785 786 787 788 789 790 790 791 792 793 794 795 795 796 798 800 802 803 805 806 807 807 808 809 810 810 810 811 811 812 812 813 814 814 815
726 728 730 731 732 734 736 738 740 742 743 744 746 748 751 753 755 757 759 760 762 764 766 767 768 769 771 772 774 776 778 781 783 784 785 786 787 788 789 790 790 791 792 793 794 794 795 796 798 800 802 803 805 806 807 807 808 809 810 810 810 810 811 812 812 813 813 814 814
725 727 729 730 732 733 736 737 739 740 742 743 744 746 748 750 752 755 757 759 762 764 765 767 767 769 770 772 774 775 777 780 782 784 785 786 787 788 789 790 791 792 792 793 794 795 796 797 798 800 802 803 805 806 807 807 808 809 809 809 809 810 810 811 812 812 813 813 813
726 727 729 730 732 734 735 737 737 739 740 742 743 745 747 748 751 753 756 758 761 763 765 766 767 769 770 772 773 774 776 779 781 783 785 786 787 788 789 790 791 792 792 793 794 795 796 797 799 800 802 803 805 806 807 808 808 809 809 809 809 809 810 810 811 812 812 812 812
725 727 728 730 732 734 736 737 737 738 740 741 743 745 746 747 749 752 755 757 760 763 765 766 767 768 770 772 773 774 776 778 780 782 784 786 787 788 789 790 791 792 792 793 794 795 797 798 799 800 802 803 805 806 807 808 808 808 808 808 808 809 809 810 810 811 811 812 812
723 725 727 729 731 733 735 737 738 739 741 742 743 745 746 747 749 752 755 757 760 762 764 765 766 767 769 771 772 774 775 777 780 782 784 786 787 788 788 790 790 791 792 793 794 795 797 798 799 800 802 804 805 807 807 807 807 807 807 808 808 808 809 809 810 810 810 811 811
723 725 727 729 731 732 734 736 738 740 741 742 743 745 746 747 749 752 755 758 760 761 763 764 766 767 769 771 772 774 775 777 779 782 783 785 787 788 789 790 791 791 792 793 794 795 797 797 798 800 802 804 806 806 807 807 807 807 807 807 807 808 808 808 809 809 809 810 810
723 725 727 729 731 732 734 736 738 740 741 742 744 745 746 747 749 752 755 758 760 762 763 765 767 768 770 771 772 774 776 777 779 781 783 785 787 788 789 790 791 791 792 793 794 795 796 797 798 800 803 804 805 806 806 807 807 807 807 807 807 807 808 808 808 808 809 809 809
724 725 727 729 731 732 734 737 738 740 742 743 744 746 747 748 750 752 755 758 761 763 765 767 768 770 771 772 773 774 776 777 779 781 783 785 786 787 788 790 790 791 792 794 795 796 797 797 799 802 803 804 805 806 806 806 806 806 806 807 807 807 807 807 807 808 808 808 808
724 725 727 729 730 732 735 737 738 740 742 743 745 746 747 748 750 752 756 758 761 763 765 767 769 771 772 772 773 774 776 777 779 781 782 785 786 787 788 789 791 792 793 794 795 796 797 799 801 802 803 804 805 805 805 805 806 806 806 806 806 806 807 807 807 807 807 807 807
724 725 727 728 730 732 734 736 738 740 741 743 745 746 747 748 750 752 756 758 761 763 765 767 768 770 772 772 773 774 775 777 778 780 782 784 785 787 788 789 791 792 793 795 796 797 799 801 802 802 803 804 804 805 805 805 805 805 805 806 806 806 806 806 806 806 806 806 806
723 725 727 728 730 732 734 736 737 739 741 743 745 746 747 748 749 752 755 757 760 762 765 766 767 769 770 771 772 773 774 776 778 780 782 783 785 787 788 789 791 792 794 795 797 799 800 801 802 802 803 804 804 804 804 804 805 805 805 805 805 805 805 805 805 806 806 806 806
724 725 727 728 730 732 733 735 736 738 740 742 744 746 747 747 749 752 754 757 759 762 764 766 767 767 768 769 770 772 774 776 778 780 782 783 785 786 788 789 791 792 794 796 798 800 800 801 801 802 802 803 803 804 804 804 804 804 805 805 805 805 805 805 805 805 805 805 805
723 725 727 728 730 732 733 734 736 737 740 741 743 745 747 747 749 751 753 756 758 761 762 764 766 766 767 767 769 772 774 776 778 780 782 783 785 786 788 789 791 793 795 798 799 800 800 800 801 802 802 802 803 803 803 804 804 804 804 804 804 804 804 804 804 804 804 804 804
723 725 726 727 729 731 732 734 735 737 739 741 743 745 747 748 749 751 753 756 758 760 762 763 764 765 766 767 770 772 775 777 778 780 782 784 785 787 788 790 792 794 796 798 798 799 799 800 801 801 802 802 802 802 803 803 803 803 803 803 803 803 803 803 803 803 803 803 803
724 725 726 727 728 730 731 733 735 737 739 741 743 745 747 748 750 751 753 756 758 760 762 762 763 764 766 768 771 773 775 777 779 781 782 784 786 787 789 791 793 795 796 797 798 798 799 800 800 801 801 801 802 802 802 802 803 803 803 803 803 803 802 802 802 802 802 802 802
725 726 727 727 728 729 731 733 735 737 739 741 743 746 747 749 750 752 754 756 758 760 762 762 763 764 766 768 771 773 775 778 780 782 783 785 787 788 790 792 793 795 796 797 797 798 798 799 800 800 800 801 801 802 802 802 802 802 802 802 802 802 802 802 802 801 801 801 801
726 727 727 728 729 730 732 733 735 737 739 742 744 746 748 749 751 752 754 757 759 761 762 763 764 766 767 769 771 773 776 778 781 782 784 786 787 789 791 793 794 795 795 796 797 797 798 799 799 799 800 800 801 801 801 801 802 802 802 802 801 801 801 801 801 800 800 800 800
726 727 728 729 730 731 732 734 735 737 739 742 744 747 748 750 751 753 755 757 759 761 763 764 766 767 769 771 772 775 777 779 781 783 785 787 789 791 792 793 794 795 795 796 797 797 798 798 799 799 800 800 800 800 801 801 801 801 801 801 801 800 800 800 800 799 799 799 799
726 727 728 729 730 732 733 734 735 737 739 742 744 746 748 750 752 753 756 758 760 762 763 765 767 768 770 772 774 776 778 779 781 783 786 788 790 792 792 793 794 795 796 796 797 797 798 798 799 799 799 800 800 800 800 800 800 800 800 800 800 799 799 799 798 798 798 798 798
726 727 728 729 731 732 733 734 736 737 739 742 744 746 748 750 752 754 756 758 760 762 764 765 767 769 770 772 774 777 779 781 782 784 787 789 791 792 793 793 794 795 796 796 797 797 797 798 798 799 799 799 799 799 800 800 800 799 799 799 799 798 798 797 797 797 797 797 797
726 727 728 730 731 733 734 735 737 738 740 742 744 746 748 750 752 754 756 758 760 762 764 765 767 769 771 772 775 777 779 781 783 786 788 789 791 792 793 794 795 796 796 796 796 797 797 797 798 798 799 799 799 799 799 799 799 799 798 798 798 797 797 797 796 796 796 796 796
726 727 729 730 732 733 735 736 738 739 741 743 745 747 749 751 753 755 757 758 760 762 764 766 767 769 771 773 775 777 779 782 784 787 788 790 791 792 794 795 796 796 796 796 796 797 797 797 797 798 798 798 798 798 798 798 798 798 798 797 797 797 796 796 796 795 795 795 795
727 728 730 731 732 734 736 737 739 740 742 744 746 748 750 752 753 755 757 759 761 762 764 765 767 769 771 774 776 778 780 783 785 787 789 790 792 793 794 795 796 796 796 796 796 796 797 797 797 797 798 798 798 798 798 798 797 797 797 797 796 796 796 795 795 795 795 795 795
728 729 731 732 733 735 737 739 740 742 744 746 748 750 752 753 755 757 758 760 761 762 764 765 767 769 772 774 776 779 782 784 786 787 789 791 792 794 795 795 795 795 795 795 795 796 796 797 797 797 797 797 797 797 797 797 797 797 796 796 796 795 795 795 795 795 794 794 794
729 731 732 733 735 737 738 740 742 743 745 747 749 751 753 755 757 758 759 761 762 763 764 766 767 770 772 774 777 780 782 785 787 788 790 791 792 794 794 795 794 794 795 795 795 795 796 796 797 797 797 797 797 797 796 796 796 796 795 795 795 795 795 794 794 794 794 794 793
731 732 733 735 737 738 740 742 743 745 747 749 751 753 754 756 757 759 760 762 763 764 766 767 769 771 773 776 779 782 784 786 787 789 790 792 793 793 794 794 794 794 794 794 795 795 796 796 796 797 796 796 796 796 796 795 795 795 795 795 794 794 794 794 794 794 794 793 793
732 733 735 736 738 740 742 743 745 747 748 750 752 754 756 757 758 760 762 763 764 766 767 769 771 773 775 778 781 783 785 786 788 789 791 792 792 793 793 793 793 793 793 794 794 795 795 796 796 796 796 795 795 795 795 795 795 794 794 794 794 794 794 794 794 793 793 793 792
734 735 737 738 740 742 743 745 746 748 749 752 753 755 757 758 759 761 763 764 766 767 769 771 772 775 777 780 782 784 785 787 788 790 791 792 792 792 792 792 792 793 793 794 794 795 795 795 795 795 795 795 795 794 794 794 794 794 794 794 794 794 794 794 793 793 793 792 792
735 737 738 740 742 743 745 746 748 749 751 752 755 757 758 759 761 762 764 766 767 769 771 773 776 778 780 782 783 785 786 788 789 790 790 791 791 791 792 792 792 793 793 794 794 794 795 795 795 795 794 794 794 794 794 794 794 794 794 794 794 794 793 793 793 793 792 792 792
737 738 740 742 743 745 746 747 749 751 752 754 756 758 760 761 762 764 766 767 769 771 773 776 778 780 782 783 785 787 787 788 789 789 789 790 790 791 791 792 792 793 793 793 794 794 794 794 794 794 794 793 793 793 793 793 793 794 794 794 793 793 793 793 793 792 792 792 792
739 740 741 743 744 746 747 749 751 752 754 756 758 759 761 763 765 766 767 769 770 772 775 777 779 781 783 784 786 787 788 788 788 789 789 790 790 791 791 791 792 792 793 793 793 794 794 794 794 793 793 793 793 793 793 793 793 793 793 793 793 793 793 792 792 792 792 792 791
741 742 743 744 746 747 749 751 752 754 756 758 760 761 762 764 766 768 769 771 772 774 776 778 780 782 783 784 786 787 787 788 788 788 789 790 790 790 790 791 791 792 792 793 793 793 794 794 793 793 793 793 793 793 793 793 793 793 793 793 793 793 792 792 792 792 792 791 791
743 744 745 746 747 749 751 753 755 756 758 759 761 763 764 766 767 769 771 772 773 775 777 779 781 782 783 785 786 787 787 788 788 788 789 789 789 790 790 791 791 792 792 793 793 793 793 793 793 793 793 793 793 793 793 793 793 793 793 792 792 792 792 792 792 791 791 791 790
744 745 746 747 749 751 753 755 757 758 759 761 762 764 765 767 768 770 772 774 775 777 778 780 781 783 784 785 786 787 787 787 788 788 789 789 789 790 790 791 791 792 792 792 793 793 793 793 793 793 793 793 793 793 793 793 793 792 792 792 792 792 792 792 791 791 790 790 790
745 747 748 750 751 753 755 757 758 760 761 762 763 765 767 768 770 772 773 775 777 778 779 781 782 783 784 785 786 787 787 787 788 788 789 789 790 790 791 791 791 792 792 792 793 793 793 793 793 793 793 793 793 793 793 793 792 792 792 792 792 792 792 791 791 790 790 789 789